Tijuana, Mexico

1:14 AM PDT on April 25, 2017 (GMT -0700)
Gen Abelardo L Rodriguez International

Weather History for MMTJ - October, 2012

Change the Weather History Date:

Thursday, October 4, 2012

  Actual Average Record
Temperature  
Mean Temperature 68 °F -  
Max Temperature 75 °F 75 °F 95 °F (2014)
Min Temperature 60 °F 57 °F 53 °F (2002)
Cooling Degree Days 4    
Growing Degree Days 18 (Base 50)    
Moisture  
Dew Point 59 °F    
Average Humidity 76    
Maximum Humidity 94    
Minimum Humidity 53    
Precipitation  
Precipitation 0.00 in - - ()
Sea Level Pressure  
Sea Level Pressure 30.09 in    
Wind  
Wind Speed 3 mph ()    
Max Wind Speed 12 mph    
Max Gust Speed -    
Visibility 4.9 miles    
Events      
Averages and records for this station are not official NWS values.
T = Trace of Precipitation, MM = Missing Value Source: Averaged Metar Reports

Daily Weather History Graph

Daily Weather History Graph

Search for Another Location

Airport or City:

Trip Planner

Search our weather history database for the weather conditions in past years. The results will help you decide how hot, cold, wet, or windy it might be!

Date:

Astronomy

Oct. 04, 2012 Rise Set
Actual Time 6:44 AM PDT 6:27 PM PDT
Civil Twilight 6:19 AM PDT 6:52 PM PDT
Nautical Twilight 5:51 AM PDT 7:20 PM PDT
Astronomical Twilight 5:22 AM PDT 7:49 PM PDT
Moon 9:22 PM PDT (10/4) 10:50 AM PDT (10/4)
Length of Visible Light 12h 32m
Length of Day
11h 43m
Waning Gibbous, 81% of the Moon is Illuminated
Oct 4
Waning Gibbous
Oct 8
Last Quarter
Oct 15
New
Oct 21
First Quarter
Oct 29
Full

Hourly Weather History & Observations

Time (PDT) Temp. Dew Point Humidity Pressure Visibility Wind Dir Wind Speed Gust Speed Precip Events Conditions
12:41 AM 64.4 °F 62.6 °F 94% 30.07 in 4.0 mi Calm Calm - N/A   Overcast
1:42 AM 64.4 °F 62.6 °F 94% 30.08 in 4.0 mi Calm Calm - N/A   Overcast
2:41 AM 64.4 °F 60.8 °F 88% 30.06 in 4.0 mi Calm Calm - N/A   Overcast
3:40 AM 64.4 °F 60.8 °F 88% 30.06 in 4.0 mi Calm Calm - N/A   Overcast
5:40 AM 64.4 °F 60.8 °F 88% 30.08 in 4.0 mi Calm Calm - N/A   Overcast
6:42 AM 64.4 °F 59.0 °F 83% 30.09 in 3.0 mi North 4.6 mph - N/A   Overcast
7:50 AM 62.6 °F 59.0 °F 88% 30.14 in 2.5 mi North 4.6 mph - N/A   Overcast
8:44 AM 64.4 °F 59.0 °F 83% 30.12 in 3.0 mi Calm Calm - N/A   Mostly Cloudy
9:50 AM 69.8 °F 57.2 °F 64% 30.13 in 4.0 mi NW 3.5 mph - N/A   Scattered Clouds
10:50 AM 75.2 °F 57.2 °F 53% 30.12 in 5.0 mi SSW 2.3 mph - N/A   Scattered Clouds
11:47 AM 75.2 °F 57.2 °F 53% 30.12 in 5.0 mi West 11.5 mph - N/A   Mostly Cloudy
12:41 PM 75.2 °F 59.0 °F 57% 30.11 in 5.0 mi West 9.2 mph - N/A   Mostly Cloudy
1:46 PM 75.2 °F 57.2 °F 53% 30.11 in 6.0 mi West 10.4 mph - N/A   Mostly Cloudy
2:47 PM 73.4 °F 55.4 °F 53% 30.08 in 6.0 mi WNW 9.2 mph - N/A   Mostly Cloudy
4:46 PM 69.8 °F 57.2 °F 64% 30.09 in 7.0 mi West 11.5 mph - N/A   Mostly Cloudy
5:52 PM 68.0 °F 57.2 °F 68% 30.08 in 7.0 mi West 6.9 mph - N/A   Scattered Clouds
6:47 PM 64.4 °F 57.2 °F 77% 30.08 in 6.0 mi West 5.8 mph - N/A   Partly Cloudy
7:46 PM 64.4 °F 59.0 °F 83% 30.09 in 6.0 mi West 6.9 mph - N/A   Clear
8:48 PM 62.6 °F 57.2 °F 82% 30.09 in 6.0 mi West 5.8 mph - N/A   Clear
9:41 PM 62.6 °F 59.0 °F 88% 30.09 in 7.0 mi Calm Calm - N/A   Clear
10:48 PM 62.6 °F 59.0 °F 88% 30.10 in 5.0 mi Calm Calm - N/A   Clear
11:40 PM 60.8 °F 57.2 °F 88% 30.09 in 5.0 mi Calm Calm - N/A   Clear